Orbital Elements at Epoch 2459200.5 (2020-Dec-17.0) TDB
Reference: JPL 25 (heliocentric ecliptic J2000)
Element | Value | Uncertainty (1-sigma) | Units |
e | .01999189295563579 | 4.3508e-08 | |
a | 2.727274780494587 | 1.5199e-08 | au |
q | 2.672751395022334 | 1.2045e-07 | au |
i | 5.3256639865411 | 4.3842e-06 | deg |
node | 168.0123711644673 | 4.7663e-05 | deg |
peri | 251.723747535817 | 0.00011633 | deg |
M | 228.4445785245447 | 0.00010747 | deg |
tp | 2459801.670998328286 (2022-Aug-10.17099833) | 0.0004925 | TDB |
period | 1645.097989660284 4.50 | 1.3752e-05 3.765e-08 | d yr |
n | .2188319493809245 | 1.8293e-09 | deg/d |
Q | 2.78179816596684 | 1.5503e-08 | au |
|
| | Orbit Determination Parameters
Additional Information
|